WetterOnline ( http://www.wetteronline.de )

Wetter aktuell Roth

Aktuelles Wetter: Roth (386m)

6-stündlich | Neueste Meldungen
Ortszeit Temperatur Wetter
Do, 21.03. 7:00 -3.9° C wolkig
Do, 21.03. 1:00 -1.5° C wolkenlos
Mi, 20.03. 19:00 5.7° C wolkenlos
Mi, 20.03. 13:00 8.4° C wolkenlos
Mi, 20.03. 7:00 -4.0° C wolkig
Mi, 20.03. 1:00 -3.1° C wolkenlos
Di, 19.03. 19:00 3.5° C wolkenlos
Di, 19.03. 13:00 6.2° C bewölkt
Ortszeit Temperatur Wetter
Do, 21.03. 10:00 7.4° C fast wolkenlos
Do, 21.03. 9:50 7.4° C fast wolkenlos
Do, 21.03. 9:40 6.5° C fast wolkenlos
Do, 21.03. 9:30 5.4° C leicht bewölkt
Do, 21.03. 9:20 5.4° C leicht bewölkt
Do, 21.03. 9:10 5.7° C leicht bewölkt
Do, 21.03. 9:00 4.5° C fast wolkenlos
Do, 21.03. 8:30 1.7° C wolkig
Do, 21.03. 8:00 -0.0° C wolkig
Do, 21.03. 7:30 -0.9° C wolkig
Do, 21.03. 7:00 -3.9° C wolkig
Ortszeit Relative Feuchte Sichtweite
Do, 21.03. 7:00 90% 18 km
Do, 21.03. 1:00 84% 25 km
Mi, 20.03. 19:00 58% 35 km
Mi, 20.03. 13:00 36% 22 km
Mi, 20.03. 7:00 91% 21 km
Mi, 20.03. 1:00 91% 23 km
Di, 19.03. 19:00 62% 40 km
Di, 19.03. 13:00 52% 28 km
Ortszeit Relative Feuchte Sichtweite
Do, 21.03. 10:00 49% 26 km
Do, 21.03. 9:50 49% -
Do, 21.03. 9:40 51% -
Do, 21.03. 9:30 53% 30 km
Do, 21.03. 9:20 53% -
Do, 21.03. 9:10 55% -
Do, 21.03. 9:00 59% 22 km
Do, 21.03. 8:30 75% 28 km
Do, 21.03. 8:00 80% 19 km
Do, 21.03. 7:30 83% 21 km
Do, 21.03. 7:00 90% 18 km
Ortszeit Niederschlagsmenge Niederschlagsart
Do, 21.03. 7:00 0.0 l/m2 in 12 Std. -
Do, 21.03. 1:00 0.0 l/m2 in 6 Std. -
Mi, 20.03. 19:00 0.0 l/m2 in 12 Std. -
Mi, 20.03. 13:00 0.0 l/m2 in 6 Std. -
Mi, 20.03. 7:00 0.0 l/m2 in 12 Std. -
Mi, 20.03. 1:00 0.0 l/m2 in 6 Std. -
Di, 19.03. 19:00 0.0 l/m2 in 12 Std. -
Di, 19.03. 13:00 0.0 l/m2 in 6 Std. -
Ortszeit Niederschlagsmenge Niederschlagsart
Do, 21.03. 10:00 0.0 l/m2 in 1 Std. -
Do, 21.03. 9:50 keine Meldung -
Do, 21.03. 9:40 keine Meldung -
Do, 21.03. 9:30 0.0 l/m2 in 1 Std. -
Do, 21.03. 9:20 keine Meldung -
Do, 21.03. 9:10 keine Meldung -
Do, 21.03. 9:00 0.0 l/m2 in 1 Std. -
Do, 21.03. 8:30 0.0 l/m2 in 1 Std. -
Do, 21.03. 8:00 0.0 l/m2 in 1 Std. -
Do, 21.03. 7:30 0.0 l/m2 in 1 Std. -
Do, 21.03. 7:00 0.0 l/m2 in 1 Std. -
Ortszeit Stärke Spitze Richtung
km/h Bft. km/h Grad Sektor
Do, 21.03. 7:00 4 1 7 10° N
Do, 21.03. 1:00 4 1 7 160° S
Mi, 20.03. 19:00 2 1 17 170° S
Mi, 20.03. 13:00 7 2 18 230° SW
Mi, 20.03. 7:00 2 1 6 230° SW
Mi, 20.03. 1:00 0 0 11 - -
Di, 19.03. 19:00 4 1 25 290° W
Di, 19.03. 13:00 14 3 22 340° N
Ortszeit Stärke Spitze Richtung
km/h Bft. km/h Grad Sektor
Do, 21.03. 10:00 7 2 14 80° O
Do, 21.03. 9:50 7 2 - 80° O
Do, 21.03. 9:40 7 2 - 80° O
Do, 21.03. 9:30 7 2 11 50° NO
Do, 21.03. 9:20 7 2 - 50° NO
Do, 21.03. 9:10 7 2 - 110° O
Do, 21.03. 9:00 4 1 7 140° SO
Do, 21.03. 8:30 0 0 7 - -
Do, 21.03. 8:00 0 0 4 - -
Do, 21.03. 7:30 0 0 4 - -
Do, 21.03. 7:00 4 1 7 10° N
Ortszeit Untergrenze Bedeckung Gattung
total tief tief mittel hoch
Do, 21.03. 7:00 10500 m 7/8 0/8 - - -
Do, 21.03. 1:00 - 0/8 0/8 - - -
Mi, 20.03. 19:00 - 0/8 0/8 - - -
Mi, 20.03. 13:00 - 0/8 0/8 - - -
Mi, 20.03. 7:00 1500 m 6/8 6/8 - - -
Mi, 20.03. 1:00 - 0/8 0/8 - - -
Di, 19.03. 19:00 - 0/8 0/8 - - -
Di, 19.03. 13:00 1500 m 7/8 7/8 - - -
Ortszeit Bedeckungsgrad in Achtel und Wolkenuntergrenze
Do, 21.03. 10:00 1(10500m)
Do, 21.03. 9:50 1(10500m)
Do, 21.03. 9:40 2(10500m)
Do, 21.03. 9:30 5(10500m)
Do, 21.03. 9:20 5(10500m)
Do, 21.03. 9:10 4(10500m)
Do, 21.03. 9:00 2(10500m)
Do, 21.03. 8:30 7(10500m)
Do, 21.03. 8:00 7(10500m)
Do, 21.03. 7:30 7(10500m)
Do, 21.03. 7:00 7(10500m)
Ortszeit Luftdruck NN (hPa) Tendenz (hPa in 3 Std.)
Do, 21.03. 7:00 1038 + 0,2
Do, 21.03. 1:00 1038 + 0,2
Mi, 20.03. 19:00 1035 + 0,4
Mi, 20.03. 13:00 1035 - 0,1
Mi, 20.03. 7:00 1036 + 1,2
Mi, 20.03. 1:00 1035 + 1,2
Di, 19.03. 19:00 1031 + 1,5
Di, 19.03. 13:00 1028 + 0,5
Ortszeit Luftdruck NN (hPa) Tendenz (hPa in 3 Std.)
Do, 21.03. 10:00 1036 + 0,1
Do, 21.03. 9:50 1036 keine Meldung
Do, 21.03. 9:40 1036 keine Meldung
Do, 21.03. 9:30 1036 + 0,4
Do, 21.03. 9:20 1036 keine Meldung
Do, 21.03. 9:10 1036 keine Meldung
Do, 21.03. 9:00 1036 + 0,3
Do, 21.03. 8:30 1037 + 0,5
Do, 21.03. 8:00 1037 + 0,8
Do, 21.03. 7:30 1037 + 0,4
Do, 21.03. 7:00 1038 + 0,2
Ortszeit Schneehöhe (cm)
Do, 21.03. 7:00 0
Do, 21.03. 1:00 0
Mi, 20.03. 19:00 0
Mi, 20.03. 13:00 0
Mi, 20.03. 7:00 0
Mi, 20.03. 1:00 0
Di, 19.03. 19:00 0
Di, 19.03. 13:00 0
Ortszeit Schneehöhe (cm)
Do, 21.03. 10:00 0
Do, 21.03. 9:50 0
Do, 21.03. 9:40 0
Do, 21.03. 9:30 0
Do, 21.03. 9:20 0
Do, 21.03. 9:10 0
Do, 21.03. 9:00 0
Do, 21.03. 8:30 0
Do, 21.03. 8:00 0
Do, 21.03. 7:30 0
Do, 21.03. 7:00 0
Link zu dieser Seite / Seite empfehlen

Das Wetter in ...